EDT,Max TemperatureF,Mean TemperatureF,Min TemperatureF,Max Dew PointF,MeanDew PointF,Min DewpointF,Max Humidity, Mean Humidity, Min Humidity, Max Sea Level PressureIn, Mean Sea Level PressureIn, Min Sea Level PressureIn, Max VisibilityMiles, Mean VisibilityMiles, Min VisibilityMiles, Max Wind SpeedMPH, Mean Wind SpeedMPH, Max Gust SpeedMPH,PrecipitationIn, CloudCover, Events, WindDirDegrees
2014-3-1,57,44,30,34,23,12,81,49,31,30.25,30.19,30.13,10,10,10,10,4,,0.00,6,,80
2014-3-2,66,50,35,54,42,30,100,72,46,30.20,30.06,29.91,10,10,5,12,2,,0.00,7,Rain,276
2014-3-3,50,36,23,50,32,19,100,94,80,30.21,30.00,29.81,10,6,1,10,3,,0.00,8,Rain-Snow,208
2014-3-4,44,32,21,30,24,18,100,77,49,30.20,30.15,30.10,10,10,10,6,1,,0.00,2,,241
2014-3-5,55,40,26,34,28,21,100,74,30,30.17,30.13,30.06,10,10,10,12,1,,0.00,0,,242
2014-3-6,46,40,33,32,21,16,81,50,29,30.23,30.13,30.04,10,10,10,13,6,13,0.00,2,Rain,97
2014-3-7,53,43,32,37,35,32,100,84,54,30.04,29.99,29.93,10,10,8,9,1,,0.00,4,Rain,123
2014-3-8,62,46,30,39,32,28,100,70,29,30.11,30.05,30.01,10,10,10,15,2,22,0.00,0,,258
2014-3-9,59,46,30,39,32,23,93,63,30,30.16,30.10,30.06,10,10,10,13,3,,0.00,2,,268
2014-3-10,60,43,26,39,33,25,93,72,42,30.08,30.00,29.89,10,10,7,17,3,,0.00,2,,254
2014-3-11,68,49,30,43,37,30,100,69,28,29.89,29.82,29.73,10,10,3,13,2,,0.00,0,,243
2014-3-12,64,47,30,55,39,21,100,78,64,29.82,29.58,29.33,10,10,2,24,5,40,0.00,6,Rain,286
2014-3-13,37,30,23,27,10,0,93,48,22,30.21,30.05,29.83,10,10,2,18,7,25,0.00,3,Rain-Snow,287
2014-3-14,60,40,21,34,20,12,74,46,22,30.25,30.14,30.00,10,10,10,23,1,31,0.00,1,,270
2014-3-15,62,50,39,37,32,21,81,47,30,30.09,30.05,30.01,10,10,10,17,4,21,0.00,3,,251
2014-3-16,53,46,39,43,35,25,93,70,33,30.05,29.87,29.70,10,9,5,15,4,,0.00,5,Rain,83
2014-3-17,42,40,37,37,35,32,93,81,70,29.85,29.74,29.68,10,10,6,9,6,,0.00,8,Rain,116
2014-3-18,57,46,35,41,35,30,87,69,51,30.04,29.93,29.84,10,10,10,17,3,,0.00,4,,116
2014-3-19,64,50,35,45,40,36,100,68,45,30.05,29.99,29.90,10,10,10,18,5,29,0.00,2,,288
2014-3-20,55,44,32,45,29,16,87,54,23,30.11,30.05,30.00,10,10,10,13,2,21,0.00,2,,268
2014-3-21,66,46,26,34,25,21,86,53,18,30.16,30.07,29.98,10,10,10,8,1,,0.00,0,,286
2014-3-22,66,50,33,41,33,27,81,59,32,30.05,30.01,29.97,10,10,10,13,1,13,0.00,2,,243
2014-3-23,48,40,33,39,32,19,100,73,37,30.19,30.07,30.00,10,10,8,8,0,,0.00,4,Rain,305
2014-3-24,46,32,19,21,16,9,93,53,22,30.25,30.15,30.00,10,10,10,8,0,15,0.00,0,,293
2014-3-25,35,30,26,30,24,16,100,78,55,30.10,29.94,29.85,10,7,0,14,1,24,0.00,7,Fog-Rain-Snow,283
2014-3-26,39,30,21,19,13,7,74,54,26,30.28,30.22,30.10,10,10,8,13,1,18,0.00,3,Rain-Snow,290
2014-3-27,60,42,23,27,18,14,80,42,20,30.29,30.22,30.13,10,10,10,10,1,15,0.00,0,,146
2014-3-28,62,53,44,50,43,25,88,65,38,30.13,30.08,30.04,10,10,7,12,1,18,0.00,7,Rain,196
2014-3-29,62,48,35,55,49,32,100,86,68,30.09,29.85,29.63,10,9,4,16,4,30,0.00,7,Rain,63
2014-3-30,51,40,30,34,29,23,100,74,35,30.15,30.04,29.93,10,9,2,16,5,23,0.00,5,Rain-Snow,284
2014-3-31,68,46,24,36,29,25,100,64,23,30.23,30.15,30.07,10,10,10,0,0,,0.00,0,,-1